Meteo Giornale » Osservazioni meteo Stati Uniti (USA) » Wellsville
ore: 19:56 - Osservazioni Meteo Wellsville
Lat. 42° 6' N Lon. 77° 59' W Alt. 647 metri s.l.m.
21 °C
Coperto
Temp. 24 Ore
16 °C
23 °C
Ovest/Nord-Ovest
14.8 Km/h
Dew point 19 °C
Umidità 88 %
Visibilità 10 Km
Il sole sorge alle ore 06:36
Il sole tramonta alle ore 19:47
| Data e Ora | Cielo e Fenomeni | T °C | DP °C | Um. % | Pres. hPa | Vis. km | Vento km/h | |
|---|---|---|---|---|---|---|---|---|
| Oggi h: 19:56 | Coperto | 21 | 19 | 88 | 1019 | 10 | O/NO 14.8 | |
| Oggi h: 18:56 | Molto Nuvoloso | 22 | 20 | 88 | 1019 | 10 | N 5.5 | |
| Oggi h: 17:56 | Poco Nuvoloso | 23 | 20 | 83 | 1019 | 10 | O 7.4 | |
| Oggi h: 16:56 | Coperto | 22 | 19 | 83 | 1019 | 10 | N 7.4 | |
| Oggi h: 15:56 | Coperto | 23 | 19 | 78 | 1020 | 10 | N 9.3 | |
| Oggi h: 14:56 | Coperto | 22 | 19 | 83 | 1020 | 10 | N 7.4 | |
| Oggi h: 13:56 | Molto Nuvoloso | 21 | 18 | 82 | 1020 | 10 | S/SO 16.7 | |
| Oggi h: 12:56 | Pioggia | 19 | 17 | 88 | 1021 | 10 | S/SO 16.7 | |
| Oggi h: 11:56 | Coperto | 18 | 17 | 93 | 1021 | 10 | S/SO 16.7 | |
| Oggi h: 11:03 | Pioggia Foschia | 17 | 17 | 100 | 1021 | 5 | S/SO 11.1 | |
| Oggi h: 10:56 | Pioggia Foschia | 17 | 17 | 100 | 1021 | 5 | S/SO 11.1 | |
| Oggi h: 10:33 | Pioggia Foschia | 17 | 17 | 100 | 1021 | 2 | S/SO 13 | |
| Oggi h: 10:22 | Pioggia Foschia | 17 | 17 | 100 | 1021 | 5 | S/SO 11.1 | |
| Oggi h: 09:56 | Coperto | 17 | 17 | 100 | 1021 | 10 | N 5.5 | |
| Oggi h: 08:56 | Pioggia Foschia | 17 | 17 | 100 | 1021 | 10 | S/SO 7.4 | |
| Oggi h: 08:29 | Foschia | 17 | 17 | 100 | 1021 | 6 | N 0 | |
| Oggi h: 08:20 | Foschia | 17 | 17 | 100 | 1021 | 3 | N 0 | |
| Oggi h: 08:12 | Foschia | 17 | 17 | 100 | 1021 | 5 | N 0 | |
| Oggi h: 07:59 | Pioggia Foschia | 17 | 17 | 100 | 1021 | 5 | N 0 | |
| Oggi h: 07:56 | Pioggia Foschia | 17 | 17 | 100 | 1022 | 2 | N 0 | |
| Oggi h: 07:30 | Foschia | 17 | 17 | 100 | 1021 | 8 | N 0 | |
| Oggi h: 07:06 | Coperto | 17 | 16 | 93 | 1021 | 11 | N 0 | |
| Oggi h: 06:56 | Foschia | 17 | 16 | 93 | 1021 | 10 | N 0 | |
| Oggi h: 05:56 | Coperto | 17 | 16 | 93 | 1021 | 10 | N 5.5 | |
| Oggi h: 05:53 | Coperto | 17 | 16 | 93 | 1021 | 10 | O/SO 7.4 | |
| Oggi h: 05:42 | Coperto | 17 | 16 | 93 | 1021 | 10 | S/SO 7.4 | |
| Oggi h: 05:22 | Coperto | 17 | 16 | 93 | 1021 | 10 | N 5.5 | |
| Oggi h: 04:56 | Coperto | 17 | 16 | 93 | 1021 | 10 | N 0 | |
| Oggi h: 04:34 | Coperto | 17 | 16 | 93 | 1021 | 10 | N 0 | |
| Oggi h: 03:56 | Coperto | 17 | 16 | 93 | 1021 | 10 | N 5.5 | |
| Oggi h: 02:56 | Coperto | 17 | 16 | 93 | 1022 | 10 | N 0 | |
| Oggi h: 02:53 | Coperto | 17 | 16 | 93 | 1022 | 10 | N 5.5 | |
| Oggi h: 02:05 | Coperto | 16 | 16 | 100 | 1022 | 13 | N 0 | |
| Oggi h: 01:56 | Coperto | 16 | 16 | 100 | 1022 | 11 | N 0 | |
| Oggi h: 00:56 | Coperto | 17 | 16 | 93 | 1022 | 10 | N 0 | |
| Oggi h: 00:27 | Pioggia Foschia | 17 | 16 | 93 | 1022 | 8 | N 5.5 | |
| Ieri h: 23:56 | Coperto | 17 | 16 | 93 | 1022 | 10 | N 0 | |
| Ieri h: 22:56 | Coperto | 17 | 16 | 93 | 1022 | 10 | O 7.4 | |
| Ieri h: 21:56 | Pioggia | 17 | 16 | 93 | 1022 | 13 | N 0 | |
| Ieri h: 20:56 | Coperto | 18 | 15 | 82 | 1022 | 10 | N 0 | |



